STORKMARKNES/SKAGEN current weather conditions

sailwx.info

Wind from 310 at 6 knots

Air temperature -0.0° C
Visibility: greater than 5.4 NM
Dewpoint -3.0° C
Present weather: Light snow showers.

Last reported at 2020-Jan-22 13:50 UTC.
Time now 2020-Jan-22 14:41 UTC

Location: N 68°35' E 015°01'.
View on Google Maps.

See reports from other nearby stations

  
Tides and Currents Weather Stations Pressure Air Temp Water Temp Dewpoint Dewpoint Depression Visibility Wind Speed Wind Dir Waves Ship Positions
date/time (UTC)wind fromknots sea level pressurealtimeterstation pressurevisibilityair tempwater tempwave heightnotes
2020-Jan-22 13:50 310 6 5.4-0.0 Light snow showers.
2020-Jan-22 13:20 330 6 5.4-1.0 Showers in the vicinity.
2020-Jan-22 12:50 320 2 4.9-2.0 Showers in the vicinity.
2020-Jan-22 12:20 250 6 5.4-0.0 Showers in the vicinity.
2020-Jan-22 11:50 280 8 5.4-1.0 Showers in the vicinity.
2020-Jan-22 11:20 360 5 4.9-1.0 Light snow showers.
2020-Jan-22 10:50 310 5 5.4-0.0 Light snow showers.
2020-Jan-22 10:20 310 4 5.4-0.0 Showers in the vicinity.
2020-Jan-22 09:50 310 4 5.4-0.0
2020-Jan-22 09:20 310 8 5.4-0.0 Showers in the vicinity.
2020-Jan-22 08:50 310 11 5.4-0.0 Showers in the vicinity.
2020-Jan-22 08:20 310 9 5.4-0.0 Showers in the vicinity.
2020-Jan-22 07:50 300 13 5.4-0.0 Showers in the vicinity.
2020-Jan-22 07:20 310 13 5.4-0.0 Showers in the vicinity.
2020-Jan-22 06:50 330 17 5.4 1.0 Light snow showers.
2020-Jan-22 06:20 330 18 5.4 1.0 Light snow showers.
2020-Jan-22 05:50 330 14 5.4 1.0 Light snow showers.
2020-Jan-22 05:20 320 9 5.4 1.0 Light snow showers.
2020-Jan-22 05:00 320 14 5.4 1.0 Light snow showers.
2020-Jan-22 04:20 320 12 5.4 2.0 Light snow showers.
2020-Jan-22 03:50 320 13 5.4 2.0 Light snow showers.
2020-Jan-21 19:50 5.4-1.0 Light snow showers.
2020-Jan-21 19:20 5.4-1.0 Light snow showers.
2020-Jan-21 18:50 5.4-1.0 Light snow showers.
2020-Jan-21 18:20 030 2 5.4-0.0 Light snow showers.
2020-Jan-21 17:50 220 2 0.6-0.0 Snow showers.
2020-Jan-21 17:20 300 5 4.9-0.0 Light snow showers.
2020-Jan-21 16:50 280 9 4.9-0.0 Light snow showers.
2020-Jan-21 16:20 280 13 1.1-0.0 Snow showers.
2020-Jan-21 15:50 280 15 5.4-0.0 Light snow showers.
2020-Jan-21 15:20 270 20 gusting 31 3.2-0.0 Snow showers.
2020-Jan-21 14:50 320 11 3.2-0.0 Snow showers.
2020-Jan-21 14:20 270 11 1.6-0.0 Snow showers.
2020-Jan-21 13:50 310 13 gusting 25 5.4-0.0 Showers in the vicinity.
2020-Jan-21 13:20 280 18 gusting 27 3.2 1.0 Snow showers.
2020-Jan-21 12:50 290 17 gusting 29 5.4-0.0 Light snow showers.
2020-Jan-21 11:50 300 20 1.1-0.0 Small hail/snow pellets.
2020-Jan-21 11:20 280 20 gusting 31 5.4 1.0 Showers in the vicinity.
2020-Jan-21 10:50 260 21 5.4 1.0 Showers in the vicinity.
2020-Jan-21 10:20 270 21 gusting 34 5.4 2.0 Small hail/snow pellets.
2020-Jan-21 09:50 260 20 gusting 31 5.4 3.0 Showers in the vicinity.
2020-Jan-21 09:20 270 25 gusting 34 5.4 2.0 Showers in the vicinity.
2020-Jan-21 08:50 270 27 gusting 40 5.4 2.0 Showers in the vicinity.
2020-Jan-21 08:20 260 28 gusting 40 5.4 2.0 Light rain showers. Small hail/snow pellets.
2020-Jan-21 07:50 270 21 5.4 2.0 Showers in the vicinity.
2020-Jan-21 07:20 260 26 gusting 35 5.4 2.0 Rain showers. Small hail/snow pellets.
2020-Jan-21 06:50 280 21 5.4 2.0 Showers in the vicinity.
2020-Jan-21 06:20 250 32 gusting 51 1.6 2.0 Light snow showers. Small hail/snow pellets.
2020-Jan-21 05:50 270 22 5.4 3.0 Showers in the vicinity.
2020-Jan-21 05:20 270 27 5.4 3.0 Showers in the vicinity.
2020-Jan-21 04:50 270 29 5.4 2.0 Showers in the vicinity.
2020-Jan-21 04:20 250 26 gusting 38 5.4 3.0 Showers in the vicinity.
2020-Jan-21 03:50 270 28 gusting 40 5.4 3.0 Showers in the vicinity.
2020-Jan-20 22:50 320 2 5.4 3.0 Light rain showers.
2020-Jan-20 22:20 5.4 3.0 Light rain showers.
2020-Jan-20 21:50 320 4 5.4 3.0 Light rain showers.
2020-Jan-20 21:20 280 6 5.4 4.0 Light rain showers.
2020-Jan-20 20:50 270 7 5.4 4.0 Light rain showers.
2020-Jan-20 20:20 300 6 5.4 4.0 Light rain.
2020-Jan-20 19:50 5.4 3.0 Light rain.
2020-Jan-20 19:20 080 2 5.4 3.0 Light rain.
2020-Jan-20 18:50 5.4 3.0 Showers in the vicinity.
2020-Jan-20 18:20 240 6 5.4 3.0 Light rain.
2020-Jan-20 17:50 310 4 5.4 3.0 Rain.
2020-Jan-20 17:20 300 12 5.4 3.0 Rain.
2020-Jan-20 16:50 280 18 5.4 4.0 Rain.
2020-Jan-20 16:20 250 11 5.4 4.0 Rain.
2020-Jan-20 15:50 220 9 5.4 4.0 Rain.
2020-Jan-20 15:20 210 7 5.4 4.0 Rain.
2020-Jan-20 14:50 210 7 4.9 4.0 Rain.
2020-Jan-20 14:20 210 7 4.9 5.0 Rain.